Location: Unspecified
(0.0000°N, 0.0000°E)
Time: 03:10:08
(UTC+00:00)

Hubble Space Telescope - Visible Passes

Search period start: 17 November 2018 00:00
Search period end: 27 November 2018 00:00
Orbit: 537 x 540 km, 28.5° (Epoch: 16 November)

Date Brightness Start Highest point End Pass type
(mag) Time Alt. Az. Time Alt. Az. Time Alt. Az.
17 Nov 2.9 18:10:34 10° N 18:12:01 12° NNE 18:13:28 10° NE visible
17 Nov 3.4 19:49:12 10° NW 19:49:49 14° NW 19:49:49 14° NW visible
18 Nov 2.2 19:38:45 10° WNW 19:41:02 32° WNW 19:41:02 32° WNW visible
19 Nov 1.2 19:28:24 10° WNW 19:32:24 58° SW 19:32:24 58° SW visible
20 Nov 1.9 19:18:09 10° W 19:22:04 40° SSW 19:23:51 26° SSE visible
21 Nov 2.6 19:08:03 10° W 19:11:40 29° SSW 19:15:17 10° SSE visible
22 Nov 1.8 05:21:20 10° SW 05:25:21 49° SSE 05:29:21 10° ENE visible
22 Nov 3.2 18:58:06 10° W 19:01:16 21° SSW 19:04:28 10° SSE visible
23 Nov 3.6 03:32:32 12° S 03:33:39 13° SSE 03:35:30 10° SE visible
23 Nov 1.0 05:10:48 10° SW 05:14:56 73° SSE 05:19:02 10° ENE visible
23 Nov 3.6 18:48:23 10° WSW 18:50:54 16° SSW 18:53:26 10° S visible
24 Nov 3.5 03:23:57 17° SE 03:23:57 17° SE 03:26:03 10° ESE visible
24 Nov 0.7 05:00:23 10° WSW 05:04:30 78° NNW 05:08:38 10° NE visible
24 Nov 3.8 18:39:09 10° SW 18:40:33 11° SSW 18:41:57 10° S visible
25 Nov 3.8 03:15:24 14° ESE 03:15:24 14° ESE 03:16:15 10° E visible
25 Nov 0.9 04:50:50 15° WSW 04:54:05 53° NNW 04:58:07 10° NE visible
26 Nov 1.4 04:42:15 27° WNW 04:43:40 36° NNW 04:47:30 10° NE visible
